| time (UTC) | temp C | wind direction | speed KPH | gust KPH | rain 1hr cm | rain 24hr cm | rain mn cm | humidity % | barometer mb |
| 20260505153043 | -17 | 86 | 0.0 | 4.8 | 0.00 | 0.00 | 0.00 | 1002.2 | |
| 20260505151540 | -17 | 86 | 0.0 | 4.8 | 0.00 | 0.00 | 0.00 | 1002.3 | |
| 20260505130112 | -17 | 92 | 1.6 | 11.3 | 0.00 | 0.00 | 0.00 | 1003.7 | |
| 20260505124600 | -17 | 83 | 3.2 | 8.0 | 0.00 | 0.00 | 0.00 | 1003.9 | |
| 20260505123050 | -17 | 11 | 0.0 | 11.3 | 0.00 | 0.00 | 0.00 | 1004.2 | |
| 20260505121547 | -17 | 360 | 3.2 | 14.5 | 0.00 | 0.00 | 0.00 | 1004.4 | |
| 20260505120040 | -17 | 321 | 8.0 | 16.1 | 0.00 | 0.00 | 0.00 | 1004.6 | |
| 20260505114536 | -17 | 309 | 9.7 | 16.1 | 0.00 | 0.00 | 0.00 | 1004.8 | |
| 20260505113032 | -17 | 321 | 4.8 | 12.9 | 0.00 | 0.00 | 0.00 | 1004.8 | |
| 20260505111534 | -17 | 330 | 3.2 | 19.3 | 0.00 | 0.00 | 0.00 | 1005.1 | |
| 20260505101509 | -17 | 297 | 0.0 | 11.3 | 0.00 | 0.00 | 0.00 | 1005.9 | |
| 20260505100009 | -17 | 322 | 4.8 | 14.5 | 0.00 | 0.00 | 0.00 | 1006.1 | |
| 20260505094601 | -17 | 314 | 1.6 | 8.0 | 0.00 | 0.00 | 0.00 | 1006.2 | |
| 20260505093107 | -17 | 302 | 4.8 | 14.5 | 0.00 | 0.00 | 0.00 | 1006.3 | |
| 20260505091553 | -17 | 282 | 4.8 | 11.3 | 0.00 | 0.00 | 0.00 | 1006.5 | |
| 20260505090047 | -17 | 331 | 1.6 | 9.7 | 0.00 | 0.00 | 0.00 | 1006.5 | |
| 20260505084543 | -17 | 57 | 1.6 | 6.4 | 0.00 | 0.00 | 0.00 | 1006.7 | |
| 20260505083039 | -17 | 57 | 0.0 | 4.8 | 0.00 | 0.00 | 0.00 | 1006.7 | |
| 20260505081543 | -17 | 57 | 1.6 | 8.0 | 0.00 | 0.00 | 0.00 | 1006.8 | |
| 20260505080033 | -17 | 340 | 0.0 | 3.2 | 0.00 | 0.00 | 0.00 | 1007.0 | |
| 20260505074526 | -17 | 318 | 0.0 | 6.4 | 0.00 | 0.00 | 0.00 | 1007.1 | |
| 20260505073025 | -17 | 313 | 1.6 | 8.0 | 0.00 | 0.00 | 0.00 | 1007.2 | |
| 20260505071534 | -17 | 311 | 0.0 | 4.8 | 0.00 | 0.00 | 0.00 | 1007.2 | |
| 20260505070012 | -17 | 311 | 0.0 | 6.4 | 0.00 | 0.00 | 0.00 | 1007.2 | |
| 20260505064519 | -17 | 311 | 1.6 | 8.0 | 0.00 | 0.00 | 0.00 | 1007.5 | |
| 20260505063011 | -17 | 256 | 0.0 | 6.4 | 0.00 | 0.00 | 0.00 | 1007.5 | |
| 20260505061602 | -17 | 254 | 1.6 | 4.8 | 0.00 | 0.00 | 0.00 | 1007.7 | |
| 20260505060055 | -17 | 254 | 0.0 | 4.8 | 0.00 | 0.00 | 0.00 | 1007.7 | |
| 20260505054555 | -17 | 254 | 0.0 | 1.6 | 0.00 | 0.00 | 0.00 | 1007.7 | |
| 20260505053056 | -17 | 254 | 0.0 | 4.8 | 0.00 | 0.00 | 0.00 | 1007.9 | |
| 20260505051544 | -17 | 254 | 0.0 | 6.4 | 0.00 | 0.00 | 0.00 | 1007.8 | |
| 20260505041524 | -17 | 255 | 0.0 | 1.6 | 0.00 | 0.00 | 0.00 | 1007.8 | |
| 20260505040033 | -17 | 255 | 0.0 | 0.0 | 0.00 | 0.00 | 0.00 | 1007.8 | |
| 20260505034515 | -17 | 255 | 0.0 | 0.0 | 0.00 | 0.00 | 0.00 | 1007.8 | |
| 20260505033011 | -17 | 255 | 0.0 | 0.0 | 0.00 | 0.00 | 0.00 | 1007.8 | |
| 20260505031506 | -17 | 255 | 0.0 | 0.0 | 0.00 | 0.00 | 0.00 | 1007.9 | |
| 20260505030008 | -17 | 255 | 0.0 | 1.6 | 0.00 | 0.00 | 0.00 | 1007.9 | |
| 20260505024558 | -17 | 255 | 0.0 | 1.6 | 0.00 | 0.00 | 0.00 | 1008.0 | |
| 20260505023107 | -17 | 255 | 0.0 | 6.4 | 0.00 | 0.00 | 0.00 | 1008.1 | |
| 20260505021600 | -17 | 210 | 0.0 | 4.8 | 0.00 | 0.00 | 0.00 | 1008.0 | |
| 20260505020057 | -17 | 210 | 0.0 | 4.8 | 0.00 | 0.00 | 0.00 | 1008.1 | |
| 20260505014550 | -17 | 209 | 0.0 | 8.0 | 0.00 | 0.00 | 0.00 | 1008.1 | |
| 20260505013045 | -17 | 209 | 0.0 | 4.8 | 0.00 | 0.00 | 0.00 | 1008.1 | |
| 20260505011550 | -17 | 209 | 0.0 | 4.8 | 0.00 | 0.00 | 0.00 | 1008.3 | |
| 20260505010039 | -17 | 209 | 0.0 | 3.2 | 0.00 | 0.00 | 0.00 | 1008.3 | |
| 20260505004534 | -17 | 209 | 0.0 | 0.0 | 0.00 | 0.00 | 0.00 | 1008.4 | |
| 20260505003028 | -17 | 209 | 0.0 | 0.0 | 0.00 | 0.00 | 0.00 | 1008.5 | |
| 20260505001524 | -17 | 209 | 0.0 | 0.0 | 0.00 | 0.00 | 0.00 | 1008.5 | |
| 20260505000019 | -17 | 209 | 0.0 | 1.6 | 0.00 | 0.00 | 0.00 | 1008.6 | |
| 20260504234515 | -17 | 209 | 0.0 | 1.6 | 0.00 | 0.00 | 0.00 | 1008.7 | |
| 20260504233012 | -17 | 209 | 0.0 | 3.2 | 0.00 | 0.00 | 0.00 | 1008.7 | |
| 20260504231505 | -17 | 209 | 0.0 | 1.6 | 0.00 | 0.00 | 0.00 | 1008.9 | |
| 20260504230002 | -17 | 209 | 0.0 | 1.6 | 0.00 | 0.00 | 0.00 | 1009.0 | |
| 20260504224601 | -17 | 209 | 0.0 | 3.2 | 0.00 | 0.00 | 0.00 | 1009.1 | |
| 20260504223056 | -17 | 209 | 0.0 | 3.2 | 0.00 | 0.00 | 0.00 | 1009.0 | |
| 20260504221548 | -17 | 209 | 0.0 | 4.8 | 0.00 | 0.00 | 0.00 | 1009.0 | |
| 20260504220105 | -17 | 323 | 0.0 | 1.6 | 0.00 | 0.00 | 0.00 | 1008.9 | |
| 20260504214551 | -17 | 323 | 0.0 | 8.0 | 0.00 | 0.00 | 0.00 | 1008.8 | |
| 20260504213051 | -17 | 17 | 1.6 | 11.3 | 0.00 | 0.00 | 0.00 | 1008.7 | |
| 20260504211541 | -17 | 316 | 4.8 | 22.5 | 0.00 | 0.00 | 0.00 | 1008.9 | |
| 20260504210037 | -17 | 343 | 9.7 | 25.7 | 0.00 | 0.00 | 0.00 | 1009.3 | |
| 20260504204532 | -17 | 321 | 12.9 | 30.6 | 0.00 | 0.00 | 0.00 | 1009.5 | |
| 20260504203029 | -17 | 308 | 14.5 | 33.8 | 0.00 | 0.00 | 0.00 | 1009.5 | |
| 20260504201524 | -17 | 292 | 12.9 | 30.6 | 0.00 | 0.00 | 0.00 | 1009.6 | |
| 20260504200034 | -17 | 291 | 8.0 | 19.3 | 0.00 | 0.00 | 0.00 | 1009.4 | |
| 20260504194515 | -17 | 323 | 0.0 | 0.0 | 0.00 | 0.00 | 0.00 | 1008.7 | |
| 20260504193011 | -17 | 323 | 0.0 | 1.6 | 0.00 | 0.00 | 0.00 | 1008.5 | |
| 20260504191517 | -17 | 323 | 0.0 | 8.0 | 0.00 | 0.00 | 0.00 | 1008.4 | |
| 20260504190003 | -17 | 327 | 1.6 | 6.4 | 0.00 | 0.00 | 0.00 | 1008.3 | |
| 20260504184614 | -17 | 82 | 0.0 | 1.6 | 0.00 | 0.00 | 0.00 | 1008.3 | |
| 20260504183053 | -17 | 87 | 0.0 | 0.0 | 0.00 | 0.00 | 0.00 | 1008.1 | |
| 20260504181549 | -17 | 87 | 0.0 | 0.0 | 0.00 | 0.00 | 0.00 | 1008.0 | |
| 20260504180044 | -17 | 87 | 0.0 | 1.6 | 0.00 | 0.00 | 0.00 | 1008.0 | |
| 20260504174539 | -17 | 87 | 0.0 | 4.8 | 0.00 | 0.00 | 0.00 | 1007.9 | |
| 20260504173036 | -17 | 94 | 3.2 | 11.3 | 0.00 | 0.00 | 0.00 | 1007.8 | |
| 20260504171530 | -17 | 90 | 1.6 | 11.3 | 0.00 | 0.00 | 0.00 | 1007.9 |